(305838) = 2004 JC51 = 2009 DM138

Discovered at Kitt Peak on 2009-02-20 by Spacewatch.

Orbit

Orbit type: Main Belt

Note: WebGL enabled browser required.

epoch2024-03-31.0
epoch JD2460400.5
perihelion date2026-10-21.97979
perihelion JD2461335.47979
argument of perihelion (°)99.21093
ascending node (°)185.19342
inclination (°)0.75695
eccentricity0.1520581
perihelion distance (AU)2.6108624
Tisserand w.r.t. Jupiter3.2
ΔV w.r.t. Earth (km/sec)10.1
semimajor axis (AU)3.0790581
mean anomaly (°)189.43919
mean daily motion (°/day)0.18242190
aphelion distance (AU)3.547
period (years)5.4
P-vector [x]0.24875570
P-vector [y]-0.89374885
P-vector [z]-0.37327415
Q-vector [x]0.96856552
Q-vector [y]0.22906444
Q-vector [z]0.09700674
absolute magnitude16.54
phase slope0.15
uncertainty0
referenceMPEC 2024-C40
observations used286
oppositions17
arc length (days)8101
first opposition used2000
last opposition used2022
residual rms (arc-secs)0.83
perturbers coarse indicatorM-v
perturbers precise indicator003Ek
first observation date used2000-09-21.0
last observation date used2022-11-26.0
computer nameMPCLINUX
JD of orbit computation2456731.581027
perihelion JD uncertainty (days)1.4248E-04
argument of perihelion uncertainty (°)4.0161E-04
ascending node uncertainty (°)4.0085E-04
inclination uncertainty (°)7.2871E-06
eccentricity uncertainty 4.9190E-08
perihelion distance uncertainty (AU)1.5365E-07
Minimum Orbit Intersection Distances (in AU)
for orbit epoch: 2460200.5, reference: E2024-C40
Mercury2.1573
Venus1.88569
Earth1.59559
Mars1.16508
Jupiter1.59611
Saturn5.51431
Uranus15.0762
Neptune26.4915

Observations

291 total observations over interval: 2000 09 21.35296 – 2022 11 26.447558
These data are available for download (format description).

Date (UT) J2000 RA J2000 Dec Magn Location Ref
2000 09 21.35296 01 03 53.19 +06 42 01.1 21.9 V 691 – Steward Observatory, Kitt Peak-Spacewatch MPS 297795
2000 09 21.37424 01 03 52.23 +06 41 55.2 22.0 V 691 – Steward Observatory, Kitt Peak-Spacewatch MPS 297795
2000 09 21.39551 01 03 51.39 +06 41 49.7 21.6 V 691 – Steward Observatory, Kitt Peak-Spacewatch MPS 297795
2003 01 28.389310 09 45 40.568 +12 42 27.74 21.54 V 645 – Apache Point-Sloan Digital Sky Survey MPS 297795
2003 01 28.392782 09 45 40.418 +12 42 28.45 22.09   645 – Apache Point-Sloan Digital Sky Survey MPS 297795
2004 05 14.22779 14 17 13.06 -13 00 14.4 20.7 V 691 – Steward Observatory, Kitt Peak-Spacewatch MPS 110364
2004 05 14.25920 14 17 11.66 -13 00 07.3 21.2 V 691 – Steward Observatory, Kitt Peak-Spacewatch MPS 110364
2004 05 14.29120 14 17 10.26 -13 00 00.2 21.3 V 691 – Steward Observatory, Kitt Peak-Spacewatch MPS 110364
2004 05 23.23865 14 11 24.16 -12 29 25.2 21.5 V 691 – Steward Observatory, Kitt Peak-Spacewatch MPS 110364
2004 05 23.26638 14 11 23.20 -12 29 20.1 21.9 V 691 – Steward Observatory, Kitt Peak-Spacewatch MPS 110364
2004 05 23.29824 14 11 22.03 -12 29 13.9 21.4 V 691 – Steward Observatory, Kitt Peak-Spacewatch MPS 110364
2005 10 01.15523 21 52 13.83 -12 26 25.4 21.1 V G96 – Mt. Lemmon Survey MPS 297795
2005 10 01.16182 21 52 13.76 -12 26 25.6 20.9 V G96 – Mt. Lemmon Survey MPS 297795
2005 10 01.16847 21 52 13.65 -12 26 26.5 21.1 V G96 – Mt. Lemmon Survey MPS 297795
2005 10 01.17514 21 52 13.58 -12 26 27.2 21.2 V G96 – Mt. Lemmon Survey MPS 297795
2006 10 27.39459 03 46 47.38 +19 09 14.8 21.4 V G96 – Mt. Lemmon Survey MPS 297795
2006 10 27.40565 03 46 46.92 +19 09 14.6 21.6 V G96 – Mt. Lemmon Survey MPS 297795
2006 10 27.41675 03 46 46.45 +19 09 12.5 21.8 V G96 – Mt. Lemmon Survey MPS 297795
2006 10 27.42785 03 46 45.91 +19 09 11.4 21.2 V G96 – Mt. Lemmon Survey MPS 297795
2006 11 11.34224 03 35 14.82 +18 28 19.0 20.7 V G96 – Mt. Lemmon Survey MPS 297795
2006 11 11.34674 03 35 14.56 +18 28 17.7 21.6 V G96 – Mt. Lemmon Survey MPS 297795
2006 11 11.35130 03 35 14.31 +18 28 16.9 20.7 V G96 – Mt. Lemmon Survey MPS 297795
2006 11 11.35574 03 35 14.10 +18 28 16.4 20.4 V G96 – Mt. Lemmon Survey MPS 297795
2008 01 13.18615 07 50 33.46 +20 01 21.6   691 – Steward Observatory, Kitt Peak-Spacewatch MPS 297795
2008 01 13.20380 07 50 32.54 +20 01 24.1   691 – Steward Observatory, Kitt Peak-Spacewatch MPS 297795
2008 01 13.22144 07 50 31.62 +20 01 26.6   691 – Steward Observatory, Kitt Peak-Spacewatch MPS 297795
2009 02 20.34887 12 22 14.70 -02 35 02.9 21.1 V 691 – Steward Observatory, Kitt Peak-Spacewatch MPS 297795
2009 02 20.36697 12 22 14.22 -02 35 00.0 21.2 V 691 – Steward Observatory, Kitt Peak-Spacewatch MPS 297795
2009 02 20.38508 12 22 13.72 -02 34 56.8 21.2 V 691 – Steward Observatory, Kitt Peak-Spacewatch MPS 297795
2009 02 28.34277 12 18 16.50 -02 08 02.5   691 – Steward Observatory, Kitt Peak-Spacewatch MPS 297795
2009 02 28.36038 12 18 15.91 -02 07 58.6   691 – Steward Observatory, Kitt Peak-Spacewatch MPS 297795
2009 02 28.37800 12 18 15.24 -02 07 54.2   691 – Steward Observatory, Kitt Peak-Spacewatch MPS 297795
2009 03 19.22113 12 05 31.53 -00 41 35.6 21.1 V 691 – Steward Observatory, Kitt Peak-Spacewatch MPS 297795
2009 03 19.23638 12 05 30.81 -00 41 30.9 20.7 V 691 – Steward Observatory, Kitt Peak-Spacewatch MPS 297795
2009 03 19.25161 12 05 30.10 -00 41 26.1 20.9 V 691 – Steward Observatory, Kitt Peak-Spacewatch MPS 297795
2009 04 03.26133 11 54 21.99 +00 34 15.5 21.2 V G96 – Mt. Lemmon Survey MPS 297795
2009 04 03.26983 11 54 21.63 +00 34 17.0 20.9 V G96 – Mt. Lemmon Survey MPS 297795
2009 04 03.27843 11 54 21.24 +00 34 20.4 20.8 V G96 – Mt. Lemmon Survey MPS 297795
2009 04 03.28696 11 54 20.91 +00 34 23.1 20.9 V G96 – Mt. Lemmon Survey MPS 297795
2010 06 16.459973 19 03 01.319 -21 28 06.53 21.15 g F51 – Pan-STARRS 1, Haleakala MPS 337437
2010 06 16.471196 19 03 00.800 -21 28 07.27 20.89 g F51 – Pan-STARRS 1, Haleakala MPS 337437
2011 09 29.25836 01 40 38.73 +10 08 34.8 21.3 V 691 – Steward Observatory, Kitt Peak-Spacewatch MPS 392759
2011 09 29.27909 01 40 37.90 +10 08 29.8 21.1 V 691 – Steward Observatory, Kitt Peak-Spacewatch MPS 392759
2011 09 29.29687 01 40 37.12 +10 08 25.3 21.2 V 691 – Steward Observatory, Kitt Peak-Spacewatch MPS 392759
2011 10 18.15034 01 26 36.64 +08 42 50.2 19.5 R H15 – ISON-NM Observatory, Mayhill MPS 396422
2011 10 18.16429 01 26 36.05 +08 42 48.6 19.6 R H15 – ISON-NM Observatory, Mayhill MPS 396423
2011 10 18.18032 01 26 35.17 +08 42 44.0 20.1 R H15 – ISON-NM Observatory, Mayhill MPS 396423
2011 10 18.19449 01 26 34.61 +08 42 39.8 19.6 R H15 – ISON-NM Observatory, Mayhill MPS 396423
2011 10 18.26775 01 26 31.09 +08 42 18.0 20.6 V G96 – Mt. Lemmon Survey MPS 395110
2011 10 18.27587 01 26 30.73 +08 42 15.9 20.0 V G96 – Mt. Lemmon Survey MPS 395110
2011 10 18.28387 01 26 30.33 +08 42 13.6 20.7 V G96 – Mt. Lemmon Survey MPS 395110
2011 10 18.29192 01 26 29.94 +08 42 11.2 20.3 V G96 – Mt. Lemmon Survey MPS 395110
2011 11 03.15928 01 15 03.99 +07 31 14.1 21.0 V G96 – Mt. Lemmon Survey MPS 398313
2011 11 03.16802 01 15 03.67 +07 31 12.0 20.5 V G96 – Mt. Lemmon Survey MPS 398313
2011 11 03.17681 01 15 03.31 +07 31 09.9 21.5 V G96 – Mt. Lemmon Survey MPS 398313
2011 11 03.18561 01 15 02.95 +07 31 08.2 21.0 V G96 – Mt. Lemmon Survey MPS 398313
2014 02 20.33170 10 02 27.82 +11 20 55.2 20.8 V G96 – Mt. Lemmon Survey MPS 502251
2014 02 20.33678 10 02 27.59 +11 20 56.7 21.2 V G96 – Mt. Lemmon Survey MPS 502251
2014 02 20.34186 10 02 27.34 +11 20 57.3 20.2 V G96 – Mt. Lemmon Survey MPS 502251
2014 02 20.34695 10 02 27.09 +11 20 58.7 21.1 V G96 – Mt. Lemmon Survey MPS 502251
2015 04 19.40292 15 28 01.04 -18 06 55.7 20.5 V G96 – Mt. Lemmon Survey MPS 602932
2015 04 19.40702 15 28 00.89 -18 06 55.0 20.3 V G96 – Mt. Lemmon Survey MPS 602932
2015 04 19.41112 15 28 00.74 -18 06 54.4 20.6 V G96 – Mt. Lemmon Survey MPS 602932
2015 04 19.41522 15 28 00.48 -18 06 52.5 19.7 V G96 – Mt. Lemmon Survey MPS 602932
2015 05 01.12216 15 20 07.04 -17 33 50.5 20.2 R 309 – Cerro Paranal MPS 604482
2015 05 01.12336 15 20 06.98 -17 33 50.2 20.0 R 309 – Cerro Paranal MPS 604482
2015 05 01.12457 15 20 06.93 -17 33 50.1 20.1 R 309 – Cerro Paranal MPS 604482
2015 05 01.12579 15 20 06.87 -17 33 49.9 19.8 R 309 – Cerro Paranal MPS 604482
2015 05 01.12699 15 20 06.81 -17 33 49.7 20.2 R 309 – Cerro Paranal MPS 604482
2015 05 10.33172 15 12 49.89 -17 03 22.3 20.0 V G96 – Mt. Lemmon Survey MPS 607165
2015 05 10.33728 15 12 49.59 -17 03 21.2 19.9 V G96 – Mt. Lemmon Survey MPS 607165
2015 05 10.34285 15 12 49.30 -17 03 20.2 20.1 V G96 – Mt. Lemmon Survey MPS 607165
2015 05 10.34841 15 12 49.02 -17 03 18.8 19.9 V G96 – Mt. Lemmon Survey MPS 607165
2015 05 20.06757 15 04 57.21 -16 29 43.2 20.4 V W84 – Cerro Tololo-DECam MPS 789554
2015 05 20.07079 15 04 57.06 -16 29 42.6   W84 – Cerro Tololo-DECam MPS 789554
2015 05 20.07400 15 04 56.90 -16 29 41.9   W84 – Cerro Tololo-DECam MPS 789554
2015 05 20.07723 15 04 56.74 -16 29 41.3   W84 – Cerro Tololo-DECam MPS 789554
2015 05 20.08046 15 04 56.58 -16 29 40.7   W84 – Cerro Tololo-DECam MPS 789554
2015 05 23.06798 15 02 37.50 -16 19 41.2 20.6 V W84 – Cerro Tololo-DECam MPS 789554
2015 05 23.07122 15 02 37.34 -16 19 40.6   W84 – Cerro Tololo-DECam MPS 789554
2015 05 23.07439 15 02 37.19 -16 19 40.0   W84 – Cerro Tololo-DECam MPS 789554
2015 05 23.07760 15 02 37.05 -16 19 39.4   W84 – Cerro Tololo-DECam MPS 789554
2015 05 23.08076 15 02 36.89 -16 19 38.8   W84 – Cerro Tololo-DECam MPS 789554
2015 05 24.06775 15 01 52.11 -16 16 24.9 20.5 V W84 – Cerro Tololo-DECam MPS 789554
2015 05 24.07100 15 01 51.96 -16 16 24.3   W84 – Cerro Tololo-DECam MPS 789554
2015 05 24.07416 15 01 51.81 -16 16 23.7   W84 – Cerro Tololo-DECam MPS 789554
2015 05 24.07733 15 01 51.66 -16 16 23.1   W84 – Cerro Tololo-DECam MPS 789554
2015 05 24.08052 15 01 51.51 -16 16 22.5   W84 – Cerro Tololo-DECam MPS 789554
2015 05 24.36367 15 01 38.703 -16 15 31.58 20.1 i F51 – Pan-STARRS 1, Haleakala MPS 609697
2015 05 24.37666 15 01 38.089 -16 15 29.02 20.3 i F51 – Pan-STARRS 1, Haleakala MPS 609697
2015 05 24.38962 15 01 37.485 -16 15 26.49 20.4 i F51 – Pan-STARRS 1, Haleakala MPS 609697
